Lexington Weather

Lexington, Massachusetts, USA

34°F
4/16/2021 11:22am 
  • Lexington Conditions: Light snow, Mist, Overcast
  • Temperature: 34.0°F / 1.1°C 
  • Dew Point: 32.7°F 
  • Relative Humidity: 95
  • Wind: Wind from N N Calm, 10-min avg: 1 mph, gust: 3 mph
  • Barometer: 29.45 inFalling 0.04  inHg/hr Falling Slowly
  • Visibility: ¾ mile
  • Snow Today: 1.7 in
  •   

Regional Weather Roundup
for Boston / Norton, MA

        
000
ASUS41 KBOX 152204
RWRBOX

REGIONAL WEATHER ROUNDUP
NATIONAL WEATHER SERVICE BOSTON/NORTON MA
600 PM EDT THU APR 15 2021

NOTE:  "FAIR" INDICATES FEW OR NO CLOUDS BELOW 12,000 FEET WITH NO 
SIGNIFICANT WEATHER AND/OR OBSTRUCTIONS TO VISIBILITY.

MAZALL-152300-
EASTERN MASSACHUSETTS
  
CITY           SKY/WX    TMP DP  RH WIND       PRES   REMARKS
BOSTON         LGT RAIN  47  39  74 E12       29.79F                  
BEVERLY        NOT AVBL                                               
LAWRENCE       LGT RAIN  46  33  60 VRB7      29.81F                  
BEDFORD        LGT RAIN  46  36  68 E13       29.77F                  
BLUE HILL        N/A     43  31  62 E10       29.75F                  
NORWOOD        LGT RAIN  47  33  58 E12       29.77F                  
MARSHFIELD     PTSUNNY   48  37  66 VRB7G15   29.78F                  
PLYMOUTH       CLOUDY    47  33  58 E9        29.76F                  
TAUNTON        LGT RAIN  49  33  54 E6        29.75F                  
NEW BEDFORD    CLOUDY    48  31  51 E12       29.74F                  
$$

MAZALL-152300-
CAPE COD AND THE ISLANDS
  
CITY           SKY/WX    TMP DP  RH WIND       PRES   REMARKS
FALMOUTH       NOT AVBL                                               
HYANNIS        CLOUDY    46  36  68 E10       29.74F                  
CHATHAM        CLOUDY    45  36  70 E14       29.79F                  
PROVINCETOWN   CLOUDY    46  37  71 E13       29.80F                  
NANTUCKET      CLOUDY    45  36  70 E17G25    29.74F                  
MARTHAS VNYRD  CLOUDY    47  37  68 E13       29.75F                  
$$
 
MAZALL-152300-
CENTRAL AND WESTERN MASSACHUSETTS
  
CITY           SKY/WX    TMP DP  RH WIND       PRES   REMARKS
WORCESTER      LGT RAIN  43  37  79 E9        29.72F                  
FITCHBURG      LGT RAIN  43  39  86 E6        29.77F                  
ORANGE         LGT RAIN  44  40  85 E8        29.74S                  
SPRINGFIELD    LGT RAIN  43  38  80 SE3       29.72R                  
WESTFIELD      RAIN      43  41  93 S3        29.72R FOG              
NORTH ADAMS    RAIN      45  41  86 E13G24    29.69R FOG              
PITTSFIELD     RAIN      45  43  93 E8        29.66R FOG              
$$
 
RIZALL-152300-
RHODE ISLAND
  
CITY           SKY/WX    TMP DP  RH WIND       PRES   REMARKS
PROVIDENCE     LGT RAIN  47  36  65 E12       29.74F                  
NEWPORT        CLOUDY    45  39  79 E12       29.73F                  
BLOCK ISLAND   LGT RAIN  42  39  89 E17G23    29.71F                  
SMITHFIELD     LGT RAIN  44  33  65 E12       29.74F                  
WESTERLY       LGT RAIN  42  40  92 E17G25    29.71F FOG              
$$
 
CTZALL-152300-
CONNECTICUT
  
CITY           SKY/WX    TMP DP  RH WIND       PRES   REMARKS
BRADLEY INTL   LGT RAIN  43  36  76 VRB3      29.72R                  
HARTFORD       LGT RAIN  44  39  82 E12       29.70S                  
BRIDGEPORT     HVY RAIN  45  44  97 E20       29.66R FOG              
DANBURY        LGT RAIN  50  45  83 SE8       29.66R                  
GROTON         LGT RAIN  43  39  86 E15G24    29.70F FOG              
NEW HAVEN      LGT RAIN  46  43  89 E20G29    29.65F FOG              
CHESTER        LGT RAIN  43  43 100 E9G16     29.67F                  
MERIDEN        HVY RAIN  45  42  89 E7        29.68F FOG              
WILLIMANTIC    LGT RAIN  43  38  82 E3        29.71F                  
OXFORD         RAIN      45  45 100 E15       29.65F FOG              
$$

MEZ002-015-021-024-NHZ003-005-008-011-012-014-VTZ005-008-152300-
NORTHERN NEW ENGLAND
  
CITY           SKY/WX    TMP DP  RH WIND       PRES   REMARKS
PORTLAND ME    PTSUNNY   47  32  56 SE8       29.84S                  
BANGOR ME      MOSUNNY   52  24  33 SE14      29.84R                  
CONCORD NH     LGT RAIN  44  35  70 E6        29.81S                  
MANCHESTER NH  LGT RAIN  46  36  68 CALM      29.79R                  
NASHUA NH      LGT RAIN  45  38  76 E9        29.80S                  
PORTSMOUTH NH  CLOUDY    46  35  65 E9        29.83F                  
JAFFREY NH     LGT RAIN  41  36  82 CALM      29.75S                  
KEENE NH       LGT RAIN  43  36  76 CALM      29.75S                  
BURLINGTON VT  LGT RAIN  46  40  79 SE12      29.69R                  
MT. WASHINGTON SNOWSHWR  25  23  93 SE39        N/A  VSB 1   WCI   6  
$$

NYZ052-076-152300-
EASTERN NEW YORK
  
CITY           SKY/WX    TMP DP  RH WIND       PRES   REMARKS
ALBANY         LGT RAIN  42  41  96 W7        29.70R FOG              
NEW YORK CITY  LGT RAIN  50  44  80 N13       29.65R                  
$$
 
ANZALL-152300-
MARINE OBSERVATIONS
  
STATION/POSITION TIME  TEMP    WIND        PRES    VSBY  WAVE
                       AIR SEA DIR/SP/G                  HT/PER
                 (UTC) (F)     (DEG/KT/KT) (MB)    (MI)  (FT/S)
BOSTON BUOY      2140   44 45   90/  8/ 10 1009.6S
BUZZARDS BAY     2100          100/ 19/ 20 1008.2F
NANTUCKET SOUND  2140      47                N/A
MASS BAY-STELLWA 2104   45     110/ 10/ 12 1008.3F  1 7/8  6/11
ISLE OF SHOALS   2100   44     100/ 10/ 10 1009.6S
S OF BLOCK IS    2126      44                N/A           6/12
$$

......................KEY.........................
  SKY/WX - SKY CONDITION/PRESENT WEATHER
  TMP    - TEMPERATURE IN FAHRENHEIT
  DWPT   - DEWPOINT IN FAHRENHEIT
  RH     - RELATIVE HUMIDITY IN PERCENT
  WIND   - DIRECTION AND SPEED IN MPH
  PRES   - MEAN SEA LEVEL PRESSURE IN INCHES OF HG
  WCI    - WIND CHILL INDEX
  VSB    - VISIBILITY IN MILES
  HX     - HEAT INDEX
  TC     - TEMPERATURE IN CELSIUS
  VRB    - VARIABLE WIND DIRECTION
  N/A    - NOT AVAILABLE
  
      

Other recent Regional Weather Roundups

Fri Apr 16, 11:04am

Fri Apr 16, 10:05am

Fri Apr 16, 9:04am

Fri Apr 16, 8:04am

Fri Apr 16, 7:04am

Fri Apr 16, 6:04am

Fri Apr 16, 5:04am

Fri Apr 16, 4:04am

Fri Apr 16, 3:04am

Fri Apr 16, 2:04am

Fri Apr 16, 1:04am

Fri Apr 16, 12:04am

Thu Apr 15, 11:05pm

Thu Apr 15, 10:04pm

Thu Apr 15, 9:04pm

Thu Apr 15, 8:04pm

Thu Apr 15, 7:05pm

Thu Apr 15, 5:05pm

Thu Apr 15, 4:04pm

Thu Apr 15, 3:05pm

Thu Apr 15, 2:04pm

Thu Apr 15, 1:05pm

Thu Apr 15, 12:04pm

Thu Apr 15, 11:04am

Thu Apr 15, 10:05am

Thu Apr 15, 9:04am

Thu Apr 15, 8:04am

Thu Apr 15, 7:04am

Thu Apr 15, 6:04am

Thu Apr 15, 5:04am

Thu Apr 15, 4:04am

Thu Apr 15, 3:04am

Thu Apr 15, 2:04am

Thu Apr 15, 1:04am

Thu Apr 15, 12:04am

Wed Apr 14, 11:04pm

Wed Apr 14, 10:04pm

Wed Apr 14, 9:04pm

Wed Apr 14, 8:04pm

Wed Apr 14, 7:04pm

Wed Apr 14, 6:04pm

Wed Apr 14, 5:05pm

Wed Apr 14, 4:04pm

Wed Apr 14, 3:05pm

Wed Apr 14, 2:04pm

Wed Apr 14, 1:05pm

Wed Apr 14, 12:04pm

Wed Apr 14, 11:04am

Wed Apr 14, 10:04am

Wed Apr 14, 9:04am

Wed Apr 14, 8:04am

Wed Apr 14, 7:04am

Wed Apr 14, 6:04am

Wed Apr 14, 5:04am

Wed Apr 14, 4:04am

Wed Apr 14, 3:04am

Wed Apr 14, 2:04am

Wed Apr 14, 1:04am

Wed Apr 14, 12:04am

Tue Apr 13, 11:04pm

Tue Apr 13, 10:05pm

Tue Apr 13, 9:05pm

Tue Apr 13, 8:05pm

Tue Apr 13, 7:04pm

Tue Apr 13, 6:04pm

Tue Apr 13, 5:05pm

Tue Apr 13, 4:04pm

Tue Apr 13, 3:04pm

Tue Apr 13, 2:05pm

Tue Apr 13, 1:04pm

Tue Apr 13, 12:05pm

Tue Apr 13, 11:05am

Tue Apr 13, 10:04am

Tue Apr 13, 9:04am

Tue Apr 13, 8:04am

Tue Apr 13, 7:04am

Tue Apr 13, 6:04am

Tue Apr 13, 5:04am

Tue Apr 13, 4:04am

Tue Apr 13, 3:04am

Tue Apr 13, 2:04am

Tue Apr 13, 1:04am

Tue Apr 13, 12:05am

Mon Apr 12, 11:04pm

Mon Apr 12, 10:04pm

Mon Apr 12, 9:04pm

Mon Apr 12, 8:04pm

Mon Apr 12, 7:05pm

Mon Apr 12, 6:04pm

Mon Apr 12, 5:04pm

Mon Apr 12, 4:04pm

Mon Apr 12, 3:05pm

Mon Apr 12, 2:04pm

Mon Apr 12, 1:05pm

Mon Apr 12, 12:04pm

Mon Apr 12, 11:04am

Mon Apr 12, 10:04am

Mon Apr 12, 9:04am

Mon Apr 12, 8:04am

Mon Apr 12, 7:04am

Mon Apr 12, 6:04am

Mon Apr 12, 5:04am

Mon Apr 12, 4:04am

Mon Apr 12, 3:04am

Mon Apr 12, 2:04am

Mon Apr 12, 1:05am

Mon Apr 12, 12:04am

Sun Apr 11, 11:04pm

Sun Apr 11, 10:04pm

Sun Apr 11, 9:04pm

Sun Apr 11, 8:04pm

Sun Apr 11, 7:04pm

Sun Apr 11, 6:05pm

Sun Apr 11, 5:05pm

Sun Apr 11, 4:04pm

Sun Apr 11, 3:05pm

Sun Apr 11, 2:05pm

Sun Apr 11, 1:05pm

Sun Apr 11, 12:04pm

Sun Apr 11, 11:05am

Sun Apr 11, 10:05am

Sun Apr 11, 9:04am

Sun Apr 11, 8:04am

Sun Apr 11, 7:04am

Sun Apr 11, 6:04am

Sun Apr 11, 5:04am

Sun Apr 11, 4:04am

Sun Apr 11, 3:04am

Sun Apr 11, 2:04am

Sun Apr 11, 1:05am

Sun Apr 11, 12:04am

Sat Apr 10, 11:05pm

Sat Apr 10, 10:04pm

Sat Apr 10, 9:04pm

Sat Apr 10, 8:04pm

Sat Apr 10, 7:05pm

Sat Apr 10, 6:04pm

Sat Apr 10, 5:04pm

Sat Apr 10, 4:04pm

Sat Apr 10, 3:04pm

Sat Apr 10, 2:05pm

Sat Apr 10, 1:04pm

Sat Apr 10, 12:04pm

Sat Apr 10, 11:04am

Sat Apr 10, 10:04am

Sat Apr 10, 9:04am

Sat Apr 10, 8:04am

Sat Apr 10, 7:04am

Sat Apr 10, 6:04am

Sat Apr 10, 5:04am

Sat Apr 10, 4:04am

Sat Apr 10, 3:04am

Sat Apr 10, 2:04am

Sat Apr 10, 1:05am

Sat Apr 10, 12:04am

Fri Apr 9, 11:04pm

Fri Apr 9, 10:05pm

Fri Apr 9, 9:04pm

Fri Apr 9, 8:05pm

Fri Apr 9, 7:05pm

Fri Apr 9, 6:04pm

Fri Apr 9, 5:04pm

Fri Apr 9, 4:05pm

Fri Apr 9, 3:05pm

Fri Apr 9, 2:04pm

Fri Apr 9, 1:04pm

Fri Apr 9, 12:04pm

Meta data:

ID: 2bd1cba2-82e4-49b9-8172-efeebe3be8d1
Link: https://api.weather.gov/products/2bd1cba2-82e4-49b9-8172-efeebe3be8d1